TITAN 3C TRANSTAGE DEB, 38704

Orbit data source: Space-Track

TITAN 3C TRANSTAGE DEB, 38704 is space debris in GEO originally from a launch on Thu, 26 Sep 1968 UTC launched from the Air Force Eastern Test Range (AFETR). Debris objects in space refer to the collection of defunct objects orbiting the Earth. Examples of debris include non-operational satellites, rocket bodies, and fragments generated from explosions, collisions, or faulty payload assembly.

Not visible in the next 10 days
Identifier
38704, 1968-081AE
Orbit
GEO
Last TLE update
2 days ago
Origin
Manufacturer
Unknown
Mission
Spacecraft
Bus & Motor
Unknown
Mass
Unknown
Launch date (UTC)
1968-09-26 (57 years ago)
Launch vehicle
Unknown
Launch site
Air Force Eastern Test Range (AFETR)
Object type
Payload
Rocket body
Debris
Shape & HBR
Unknown
Radar Cross Section
Small (<0.1 m²)

Expand to show TLE details & history

TLE from 2 days ago
0 TITAN 3C TRANSTAGE DEB
1 38704U 68081AE  25198.47155025 -.00000121  00000-0  00000-0 0  9994
2 38704   3.3377  64.7347 0205059 213.8306 144.7857  1.02195529 72584
Epoch: 2025-07-17T11:19Z
TLE epoch observation values (Epoch: 2025-07-17T11:19:01.941Z)
Latitude
-0.00001°
Longitude
-40.6064°
Altitude
35,959.889 km
Speed
3.042 km/s
True Right ascension
04h 18m 45s
True Declination
0° 00' 00"
Sunlit
Object was in daylight at epoch
Visualization orbit readout
Latitude
-3.31193°
Longitude
-140.55538°
Altitude
34,652.392 km
Speed
3.139 km/s
Apparent Right ascension
22h 06m 14s
Apparent Declination
-9° 07' 17"
Sunlit
Object is in daylight
Visualization observer readout
Local Sidereal Time
16:32:55
Azimuth
101.255° ESE
Elevation
-0.789°
Doppler factor
1
Orbital elements
Apogee altitude
36,110.619 km
Perigee altitude
34,403.093 km
Semi-major axis
41,634.993 km
Eccentricity
0.02051
Inclination
3.3377°
RAAN
64.7347°
Arg. of periapsis
213.8306°
True anomaly
146.11275°
Mean anomaly
144.7857°
Eccentric anomaly
145.45198°
Mean motion
0.25548 °/min
Orbital period
1,409.12 mins
BSTAR
0
Loading maneuver chart data...
Loading SW <> Apogee altitude chart data...
|